Upload a Photo Upload a Video Add a News article Write a Blog Add a Comment
Blog Feed News Feed Video Feed All Feeds

Media

Photos (0)
View
Videos (9)
View
News (17)
View
Blogs (0)
View
 

Watch By Meet

 

Folders

 

Videos

 

Midget Boys Individual Awards - COSSA XC Championships 2011

Published by
Matt   on Oct 27th 2011, 2:48am
 
COSSA XC Championships - Oct 26, 2011
Ken Reid Conservation Area, Kawartha, ON, CA, cossa
 
Mens 5135m XC Midget
  Bib# Name Yr School  Time  Pace  Pts
1 518 King, Taylor   Lindsay  18:32.00  05:48.50  1
2 516 Holliday, Adam   Lindsay  19:05.00  05:58.90  2
3 415 Goodyear, Taylor   East Northumberl  19:09.00  06:00.10  3
4 303 Marecak, Liam   Bayside  19:33.00  06:07.70  4
5 554 Baehre, David   North Hastings  19:55.00  06:14.60  5
6 424 Rumpel, Braden   East Northumberl  20:08.00  06:18.60  6
7 435 Lamothe, Andrew   ES Marc Garneau  20:19.00  06:22.10  7
8 416 Hayward, Spencer   East Northumberl  20:27.00  06:24.60  8
9 371 Orser, Jesse   Cobourg West  20:37.00  06:27.70  9
10 369 Jamnicky, Jacob   Cobourg West  20:39.00  06:28.40  10
11 438 Royer, Mitchell   ES Marc Garneau  20:47.00  06:30.90  11
12 675 Brown, Cameron   Trenton  20:59.00  06:34.60  12
13 686 Thurston, Logan   Trenton  21:00.00  06:34.90  13
14 546 Garvin, Liam   Nicholson  21:04.00  06:36.20  14
15 413 Dibbits, Quin   East Northumberl  21:06.00  06:36.80  15
16 374 Stasiuk, Jordan   Cobourg West  21:07.00  06:37.10  16
17 373 Ruddy, Chays   Cobourg West  21:21.00  06:41.50  17
18 514 Druer, Brandon   Lindsay  21:24.00  06:42.50  18
19 496 Williams, Kiefer   IE Weldon  21:36.00  06:46.20  19
20 581 Norton, Cole   Prince Edward Co  21:40.00  06:47.50  20
21 488 Louden, Thomas   IE Weldon  21:44.00  06:48.70  21
22 437 Rancourt, Frederick   ES Marc Garneau  21:45.00  06:49.00  22
23 436 Mailhot, Nicolas   ES Marc Garneau  21:46.00  06:49.30  23
24 519 Short, David   Lindsay  21:54.00  06:51.90  24
25 341 Crago, Bradley   Centennial Secon  21:58.00  06:53.10  25
26 431 Blouin, Steven   ES Marc Garneau  22:07.00  06:55.90  26
27 547 Jarvis, Liam   Nicholson  22:10.00  06:56.90  27
28 307 Moon, Michael   Bayside  22:12.00  06:57.50  28
29 295 Genereaux, Mitchell   Bayside  22:20.00  07:00.00  29
30 651 Meenan, John   St Thomas Aquina  22:28.00  07:02.50  30
31 305 Metcalf, Gavin   Bayside  22:57.00  07:11.60  31
32 552 Roach, Kris   Nicholson  23:05.00  07:14.10  32
33 565 Beckett, Andrew   Port Hope  23:09.00  07:15.40  33
34 608 Jordan, Austin   St Paul's - Tren  23:18.00  07:18.20  34
35 348 Thompson, Jacob   Centre Hastings  23:28.00  07:21.30  35
36 426 Sweet, Darion   East Northumberl  23:35.00  07:23.50  36
37 342 Hatt, Andrew   Centennial Secon  23:38.00  07:24.50  37
38 542 Boretski, Alexi   Nicholson  23:41.00  07:25.40  38
39 301 Lupenette, Bryan   Bayside  23:41.00  07:25.40  39
40 434 Halle, Nicholas   ES Marc Garneau  23:47.00  07:27.30  40
41 388 Phillips, Bradley   Crestwood  24:12.00  07:35.10  41
42 548 Ling, Avery   Nicholson  24:14.00  07:35.70  42
43 465 Stephenson, William   Haliburton Highl  24:20.00  07:37.60  43
44 489 Marchand, Adam   IE Weldon  24:25.00  07:39.20  44
45 298 Hawes, Devon   Bayside  24:31.00  07:41.10  45
46 479 Fournier, Reade   IE Weldon  24:55.00  07:48.60  46
47 384 Bryan, Johnathon   Crestwood  26:44.00  08:22.70  47
48 550 Moher, Jack   Nicholson  27:26.00  08:35.90  48
49 361 Peters, Brice   Cobourg East  27:43.00  08:41.20  49
50 513 Bruce, Travis   Lindsay  28:00.00  08:46.60  50
51 344 Preston, Lyle   Centennial Secon  28:07.00  08:48.80  51
52 432 Daley, Liam   ES Marc Garneau  28:08.00  08:49.10  52
53 497 Cadence, Jeremy   Kenner Collegiat  28:42.00  08:59.70  53

Click here for full results.
Post to:
Post as: 
History for North Hastings High School Track & Field and Cross Country - Bancroft, Ontario
YearVideosNewsPhotosBlogs
2014 5 1    
2013 26 7    
2012 25 16    
2011 28 12    
2010 6 10    
2009   2    
Hashtags:#cosaa #ontario